Location: Bushey
(51.6333°N, 0.3667°W)
Time: 12:43:37
(UTC+00:00)

H-2A R/B - Pass Details

Date: 03 March 2021
Orbit: 732 x 837 km, 98.2° (Epoch: 13 April)

Event Time Altitude Azimuth Distance (km) Brightness Sun altitude
Rises 19:42:30 0° 200° (SSW) 3,371 5.4 -18.8°
Reaches altitude 10° 19:45:14 10° 212° (SSW) 2,447 4.8 -19.2°
Maximum altitude 19:49:45 26° 269° (W) 1,589 4.4 -19.9°
Drops below altitude 10° 19:54:18 10° 325° (NW) 2,456 5.3 -20.6°
Sets 19:57:03 0° 338° (NNW) 3,386 5.9 -21.0°
